Weather in Tishkovo

Russia / Astrakhan Oblast     46°01′06″N   48°36′35″E
temp.,
°C
wind,
m/s
gust,
m/s
humid.,
%
clouds,
%
prec.,
mm/h
press.,
hPa
HPBL,
m
1 august, sun
sun101:00+23sse226193 0.0 101212
04:00+22ese01645 0.0 101111
07:00+25ene11535 0.0 101267
10:00+33se35265 0.0 10121162
13:00+33sse443231 1.1 10121006
16:00+35s4424100 1.6 10111445
19:00+32sse332817 0.0 1011248
22:00+25s22435 0.0 101114
2 august, mon
mon201:00+24ssw114754 0.0 101111
04:00+26ne1139100 0.0 101111
07:00+28ene243470 0.0 101297
10:00+36ese45185 0.0 10121004
13:00+38se551463 0.0 10121819
16:00+37ese5714100 0.0 10111163
19:00+32se372968 0.0 1011322
22:00+26se225366 0.0 101117
3 august, tue
tue301:00+25s225427 0.0 101111
04:00+25w00432 0.0 101111
07:00+28ne232817 0.0 101153
10:00+38ese34125 0.0 10121078
13:00+40se5595 0.0 10112952
16:00+39sse54110 0.0 10101738
19:00+34sse35200 0.0 1010176
22:00+28s33290 0.0 101124
4 august, wed
wed401:00+27ssw33390 0.0 101027
04:00+24w12480 0.0 101111
07:00+27s11410 0.0 101128
10:00+37s34160 0.0 1011886
13:00+39s66140 0.0 10111568
16:00+38s55140 0.0 10101171
19:00+32sse47295 0.0 1010247
22:00+26wsw22506 0.0 101126
5 august, thu
thu501:00+25wnw33441 0.0 101129
04:00+24nw11403 0.0 101011
07:00+27n23342 0.0 101181
10:00+35n6725100 0.0 10111389
13:00+35n9829100 0.0 10122066
16:00+33n5529100 0.1 10121171
19:00+33nnw45310 0.0 10121365
22:00+27n36430 0.0 1012101